Weather Roundup
Issued by NWS Springfield, MO

Home | Current Version | Previous Version | Text Only | Print | Product List | Glossary On
Versions: 1 2 3 4 5 6 7 8 9 10 11 12 13 14 15 16 17 18 19 20 21 22 23 24 25 26 27 28 29 30 31 32 33 34 35 36 37 38 39 40 41 42 43 44 45 46 47 48 49 50
000
NZUS99 KSGF 241057
HRRSGF

HOURLY WEATHER
NATIONAL WEATHER SERVICE SPRINGFIELD MO
600 AM CDT TUE MAY 24 2016

......SGF CWA......

CITY           SKY/WX    TMP DP  RH WIND       PRES   REMARKS
SPRINGFIELD    CLOUDY    64  61  90 S10       29.95R
JOPLIN         PTCLDY    65  62  90 SE5       29.93R
WEST PLAINS    TSTM      61  58  90 NE5       30.01R
ROLLA          CLOUDY    64  58  80 S6        29.96R

......SURROUNDING SGF CWA......

CITY           SKY/WX    TMP DP  RH WIND       PRES   REMARKS
CHANUTE        CLOUDY    67  63  87 SE7       29.89R
PARSONS        CLOUDY    68  64  87 VRB3      29.89R
COFFEYVILLE    CLOUDY    68  64  87 SE7       29.87R
EMPORIA        RAIN      62  59  90 N20G28    29.94R
HARRISON AR    CLOUDY    65  61  87 SE6       29.97R

......KANSAS AND MISSOURI......

CITY           SKY/WX    TMP DP  RH WIND       PRES   REMARKS
KANSAS CTY INT CLOUDY    62  60  93 W3        29.92R
SEDALIA        CLOUDY    63  60  90 SE7       29.95R
ST JOSEPH      CLOUDY    64  61  90 SW13      29.88R
ST LOUIS       CLOUDY    70  54  56 S6        29.98R
WICHITA        CLOUDY    70  67  90 E8        29.85R
TOPEKA         LGT RAIN  61  58  90 E7        29.88F
OLATHE         CLOUDY    62  60  93 S8        29.90S

......TENNESSEE......

CITY           SKY/WX    TMP DP  RH WIND       PRES   REMARKS
MEMPHIS        NOT AVBL
NASHVILLE      PTCLDY    56  52  86 CALM      30.08R

......ARKANSAS.......

CITY           SKY/WX    TMP DP  RH WIND       PRES   REMARKS
FAYETTEVILLE   CLOUDY    67  64  90 CALM      29.95R
FT SMITH       CLOUDY    68  64  87 NE7       29.92R
LITTLE ROCK    CLOUDY    67  61  81 CALM      29.98R

......OKLAHOMA.......

CITY           SKY/WX    TMP DP  RH WIND       PRES   REMARKS
TULSA          CLOUDY    70  66  87 SE10      29.84S
PONCA CITY     CLOUDY    69  66  90 SE8       29.79F
MCALESTER      MOCLDY    73  68  84 S8        29.89R
OKLAHOMA CITY  CLOUDY    74  67  78 S14G24    29.76F

......IOWA............

CITY           SKY/WX    TMP DP  RH WIND       PRES   REMARKS
DES MOINES     NOT AVBL
QUAD CITIES    MOCLDY    65  52  62 CALM      29.94R

......ILLINOIS........

CITY           SKY/WX    TMP DP  RH WIND       PRES   REMARKS
QUINCY         PTCLDY    63  54  72 S7        29.95R
CHICAGO        CLOUDY    61  46  57 CALM      29.97R




USA.gov is the U.S. government's official web portal to all federal, state and local government web resources and services.